TimeCDT,TemperatureF,Dew PointF,Humidity,Sea Level PressureIn,VisibilityMPH,Wind Direction,Wind SpeedMPH,Gust SpeedMPH,PrecipitationIn,Events,Conditions,WindDirDegrees,DateUTC
12:58 AM,48.6,32.9,55,30.11,10.0,SSW,3.5,-,N/A,,Clear,210,2014-04-10 05:58:00
1:58 AM,48.6,32.9,55,30.09,10.0,South,4.6,-,N/A,,Clear,190,2014-04-10 06:58:00
2:58 AM,48.9,33.3,55,30.09,10.0,South,5.8,-,N/A,,Clear,180,2014-04-10 07:58:00
3:58 AM,48.2,33.1,56,30.09,10.0,South,5.8,-,N/A,,Clear,190,2014-04-10 08:58:00
4:58 AM,48.6,34.0,57,30.09,10.0,South,6.9,-,N/A,,Clear,180,2014-04-10 09:58:00
5:58 AM,48.2,34.5,59,30.10,10.0,South,8.1,-,N/A,,Clear,180,2014-04-10 10:58:00
6:58 AM,47.5,35.6,63,30.11,10.0,SE,5.8,-,N/A,,Clear,140,2014-04-10 11:58:00
7:58 AM,54.0,38.1,55,30.12,10.0,South,8.1,-,N/A,,Clear,190,2014-04-10 12:58:00
8:58 AM,59.2,39.6,48,30.11,10.0,SSW,12.7,-,N/A,,Clear,200,2014-04-10 13:58:00
9:58 AM,65.1,38.3,37,30.09,10.0,SSW,19.6,29.9,N/A,,Clear,200,2014-04-10 14:58:00
10:58 AM,68.7,38.5,33,30.08,10.0,SSW,19.6,26.5,N/A,,Clear,200,2014-04-10 15:58:00
11:58 AM,72.3,39.7,31,30.05,10.0,SW,18.4,25.3,N/A,,Clear,220,2014-04-10 16:58:00
12:58 PM,74.8,41.5,30,30.03,10.0,SSW,18.4,24.2,N/A,,Clear,200,2014-04-10 17:58:00
1:58 PM,77.0,41.2,28,30.01,10.0,SW,19.6,-,N/A,,Clear,220,2014-04-10 18:58:00
2:58 PM,77.7,40.5,26,29.98,10.0,SSW,17.3,28.8,N/A,,Clear,210,2014-04-10 19:58:00
3:58 PM,77.2,41.4,28,29.95,10.0,SSW,21.9,24.2,N/A,,Clear,210,2014-04-10 20:58:00
4:58 PM,77.2,41.9,28,29.94,10.0,SSW,20.7,28.8,N/A,,Clear,210,2014-04-10 21:58:00
5:58 PM,75.7,41.9,30,29.95,10.0,SSW,18.4,25.3,N/A,,Clear,200,2014-04-10 22:58:00
6:58 PM,74.1,42.1,32,29.96,10.0,SSW,17.3,20.7,N/A,,Clear,200,2014-04-10 23:58:00
7:58 PM,72.3,42.1,34,29.98,10.0,SSW,12.7,20.7,N/A,,Clear,200,2014-04-11 00:58:00
8:58 PM,70.3,41.9,36,30.01,10.0,SSW,12.7,-,N/A,,Clear,200,2014-04-11 01:58:00
9:58 PM,68.4,41.7,38,30.02,10.0,South,9.2,-,N/A,,Clear,190,2014-04-11 02:58:00
10:58 PM,67.3,41.4,39,30.02,10.0,SSW,17.3,24.2,N/A,,Partly Cloudy,200,2014-04-11 03:58:00
11:58 PM,67.5,41.0,38,30.00,10.0,SSW,18.4,25.3,N/A,,Partly Cloudy,200,2014-04-11 04:58:00